Regional Weather Roundup
Issued by NWS

Home | Current Version | Previous Version | Text Only | Print | Product List | Glossary Off
Versions: 1 2 3 4 5 6 7 8 9 10 11 12 13 14 15 16 17 18 19 20 21 22 23 24 25 26 27 28 29 30 31 32 33 34 35 36 37 38 39 40 41 42 43 44 45 46 47 48 49 50

000
ASUS45 KTFX 281410
RWRMT
MONTANA REGIONAL WEATHER ROUNDUP
NATIONAL WEATHER SERVICE GREAT FALLS MT
800 AM MDT FRI AUG 28 2015

NOTE: "FAIR" INDICATES FEW OR NO CLOUDS BELOW 12000 FEET WITH NO
SIGNIFICANT WEATHER AND/OR OBSTRUCTIONS TO VISIBILITY.

MTZ001>007-043-281500-
WEST OF THE DIVIDE

CITY           SKY/WX    TMP DP  RH WIND       PRES   REMARKS
KALISPELL      CLOUDY    48  42  80 CALM      30.03S SMOKE
MISSOULA       CLOUDY    53  40  61 CALM      30.11S HAZE
BUTTE          CLOUDY    46  41  82 CALM      30.25R HAZE
MULLAN PASS    HAZE      59  35  40 S9        30.17S VSB 1
DEER LODGE       N/A     46  39  76 CALM      30.23R
EUREKA           N/A     59  39  47 SE5       29.99
HAMILTON         N/A     64  41  42 S9        30.11R
LIBBY            N/A     52  43  71 CALM      30.02S
PLAINS           N/A     50  41  71 CALM      30.04S
RONAN            N/A     51  42  71 CALM      30.09R
$$

MTZ008-052>055-281500-
SOUTHWEST MONTANA

CITY           SKY/WX    TMP DP  RH WIND       PRES   REMARKS
BOZEMAN        MOSUNNY   52  46  80 CALM      30.19S
DILLON         CLOUDY    51  41  68 S10       30.23R HAZE
W YELLOWSTONE  SUNNY     37  36  93 CALM      30.37R
$$

MTZ009-010-012-014-046-048-049-054-281500-
EAST SLOPES AND CENTRAL MONTANA

CITY           SKY/WX    TMP DP  RH WIND       PRES   REMARKS
CUT BANK       CLOUDY    68  39  34 W15       30.03R HAZE
GREAT FALLS    PTSUNNY   66  38  35 SW8       30.04S HAZE
MALMSTROM AFB  PTSUNNY   65  40  39 SW10      30.04S
HELENA         PTSUNNY   55  44  66 CALM      30.14R SMOKE
CONRAD           N/A     60  46  59 CALM      30.05S
$$

MTZ011-013-016-021-045-047-050-051-281500-
NORTH CENTRAL MONTANA

CITY           SKY/WX    TMP DP  RH WIND       PRES   REMARKS
HAVRE          CLOUDY    61  43  51 SW8       29.98R HAZE
LEWISTOWN      PTSUNNY   59  44  57 SE8       30.10R HAZE
N BAR RANCH      N/A     66  37  34 CALM      30.12S HAZE
CHINOOK          N/A     59  46  63 W5        29.95S
FORT BENTON      N/A     64  41  42 SW5       30.01S
$$

MTZ017>020-022>027-061-062-281500-
NORTHEAST MONTANA

CITY           SKY/WX    TMP DP  RH WIND       PRES   REMARKS
GLASGOW        PTSUNNY   61  52  72 NW5       29.93R HAZE
JORDAN           N/A     56  45  66 CALM      29.98R
SIDNEY         SUNNY     61  55  82 S6        29.92R
WOLF POINT     SUNNY     59  53  80 CALM      29.92R
MALTA            N/A     57  49  75 CALM      29.91R
PLENTYWOOD       N/A     63  54  72 CALM      29.90S
POPLAR           N/A     59  54  82 W6        29.92S
$$

MTZ028>42-056>058-281500-
SOUTHCENTRAL AND SOUTHEAST MONTANA

CITY           SKY/WX    TMP DP  RH WIND       PRES   REMARKS
BAKER          SUNNY     62  52  69 CALM      30.00R
BILLINGS       PTSUNNY   64  47  53 SW16      30.11R
LIVINGSTON     PTSUNNY   57  42  57 S5        30.17S
MILES CITY     MOSUNNY   66  47  50 SW6       29.99R HAZE
FORSYTH          N/A     70  46  43 W5        30.01R
LAUREL           N/A     61  48  62 SW6       30.10R
$$

REGIONAL REPORTS...DAKOTAS

CITY           SKY/WX    TMP DP  RH WIND       PRES   REMARKS
WILLISTON      MOSUNNY   62  59  90 CALM      29.90R
MINOT          PTSUNNY   67  59  75 SW14      29.84R HAZE
DICKINSON      SUNNY     64  57  78 SW7       29.93R
CROSBY           N/A     63  63 100 SW3       29.89R
BISMARCK       MOSUNNY   66  62  87 CALM      29.91S
GRAND FORKS    MOSUNNY   67  64  90 S9        29.85R
FARGO          SUNNY     67  63  87 S14       29.91F
BUFFALO SD       N/A     60  54  80 SW5       29.94R
RAPID CITY     MOSUNNY   62  58  86 CALM      30.04R
$$

REGIONAL REPORTS...WYOMING/IDAHO/WASHINGTON

CITY           SKY/WX    TMP DP  RH WIND       PRES   REMARKS
GILLETTE       SUNNY     65  46  50 W6        30.13R
SHERIDAN       SUNNY     62  49  62 CALM      30.12R
BUFFALO WY     SUNNY     68  39  34 W8        30.18R
CODY           SUNNY     55  46  71 CALM      30.22R
YELLOWSTONE LA   N/A     38  37  97 CALM      30.45R
IDAHO FALLS    SUNNY     54  45  71 N7        30.24R
SALMON         CLOUDY    50  39  66 CALM      30.20R
BOISE          PTCLDY    72  37  28 CALM      30.03R
SPOKANE        CLOUDY    67  41  38 SE8       29.96R
$$

REGIONAL REPORTS...ALBERTA

CITY           SKY/WX    TMP DP  RH WIND       PRES   REMARKS
EDMONTON       PTSUNNY   59  54  82 S2        29.79F FOG
CALGARY        PTSUNNY   63  41  45 SW5       29.92S SMOKE
LETHBRIDGE       N/A     64  41  42 W10       29.95R SMOKE
MEDICINE HAT   CLOUDY    61  46  59 SW8       29.91R SMOKE
WATERTON GATE    N/A     57  41  54 S5          N/A
CARDSTON         N/A     59  39  47 SW9         N/A
MILK RIVER       N/A     59  43  55 NW9         N/A
ONEFOUR          N/A     59  41  51 NW3         N/A
$$

REGIONAL REPORTS...SASKATCHEWAN

CITY           SKY/WX    TMP DP  RH WIND       PRES   REMARKS
SWIFT CURRENT  SUNNY     63  46  55 W10       29.88R HAZE
REGINA         PTSUNNY   57  57 100 N3        29.87S FOG
SASKATOON      PTSUNNY   59  57  94 S7        29.85R
CYPRESS HILLS    N/A     66  36  32 W9          N/A
VAL MARIE        N/A     54  48  82 SW5         N/A
ROCKGLEN         N/A     64  48  55 W9          N/A
$$



USA.gov is the U.S. government's official web portal to all federal, state and local government web resources and services.